CZ-6A DEB, 54461

Orbit data source: Space-Track

CZ-6A DEB, 54461 is space debris in SSO originally from a launch on Fri, 11 Nov 2022 UTC launched from the Taiyaun Space Center, China (TSC). Debris objects in space refer to the collection of defunct objects orbiting the Earth. Examples of debris include non-operational satellites, rocket bodies, and fragments generated from explosions, collisions, or faulty payload assembly.

Loading next visibility...
Identifier
54461, 2022-151GM
Orbit
SSO
Country
Flag of CNCN / PRC
Related business
Manufacturer
SAST
Mission
Spacecraft
Bus & Motor
Unknown
Mass
Unknown
Launch date (UTC)
2022-11-11 (4 years ago)
Launch vehicle
Unknown
Launch site
Taiyaun Space Center, China (TSC)
Object type
Payload
Rocket body
Debris
Shape & HBR
Unknown shape, 0.1 m
Radar Cross Section
Medium (>0.1 m² and <1 m²)

Expand to show TLE details & history
Last TLE update: 12 hours ago

TLE from 12 hours ago
0 CZ-6A DEB
1 54461U 22151GM  26236.42810484  .00000419  00000-0  29861-3 0  9994
2 54461  99.0194 230.4626 0125451 213.5858 145.7308 13.99176628192537
Epoch: 2026-08-24T10:16Z
TLE epoch observation values (Epoch: 2026-08-24T10:16:28.258Z)
Latitude
-0.00003°
Longitude
103.63491°
Altitude
975.316 km
Speed
7.326 km/s
True Right ascension
15h 21m 51s
True Declination
0° 00' 00"
Sunlit
Object was in daylight at epoch
Visualization orbit readout
Latitude
Unknown
Longitude
Unknown
Altitude
Unknown
Speed
Unknown
Apparent Right ascension
Unknown
Apparent Declination
Unknown
Sunlit
N/A
Visualization observer readout
Local Sidereal Time
13:49:13
Azimuth
Unknown
Elevation
Unknown
Doppler factor
Unknown
Orbital elements
Apogee altitude
985.076 km
Perigee altitude
802.621 km
Semi-major axis
7,271.986 km
Eccentricity
0.01255
Inclination
99.0194°
RAAN
230.4626°
Arg. of periapsis
213.5858°
True anomaly
146.52988°
Mean anomaly
145.7308°
Eccentric anomaly
146.13137°
Mean motion
3.49996 °/min
Orbital period
102.86 mins
BSTAR
0.00029861
Loading maneuver chart data...
Computing Atmospheric mass density...
Loading historical data...
Loading historical data...
Loading historical data...
Loading historical data...
Loading historical data...
Loading historical data...
Loading historical data...

Documentation

Showing up to 5 results
|